SL-16 DEB, 22423

Orbit data source: Space-Track

SL-16 DEB, 22423 is space debris in LEO originally from a launch on Fri, 25 Dec 1992 UTC launched from the Tyuratam Missile And Space Complex (TTMTR). Debris objects in space refer to the collection of defunct objects orbiting the Earth. Examples of debris include non-operational satellites, rocket bodies, and fragments generated from explosions, collisions, or faulty payload assembly.

Loading next visibility...
Identifier
22423, 1992-093DQ
Orbit
LEO
Country
Flag of CISCIS
Related business
Manufacturer
Unknown
Mission
Spacecraft
Bus & Motor
Unknown
Mass
Unknown
Launch date (UTC)
1992-12-25 (33 years ago)
Launch vehicle
Unknown
Launch site
Tyuratam Missile And Space Complex (TTMTR)
Object type
Payload
Rocket body
Debris
Shape & HBR
Unknown shape, 0.2 m
Radar Cross Section
Medium (>0.1 m² and <1 m²)

Expand to show TLE details & history
Last TLE update: 19 hours ago

TLE from 19 hours ago
0 SL-16 DEB
1 22423U 92093DQ  25296.42760875  .00000115  00000-0  11226-3 0  9991
2 22423  71.2818 348.5147 0101550 288.5174  70.4927 13.95468952668631
Epoch: 2025-10-23T10:15Z
TLE epoch observation values (Epoch: 2025-10-23T10:15:45.396Z)
Latitude
-0.00003°
Longitude
162.48853°
Altitude
887.879 km
Speed
7.421 km/s
True Right ascension
23h 14m 03s
True Declination
0° 00' 00"
Sunlit
Object was in full shadow at epoch
Visualization orbit readout
Latitude
Unknown
Longitude
Unknown
Altitude
Unknown
Speed
Unknown
Apparent Right ascension
Unknown
Apparent Declination
Unknown
Sunlit
N/A
Visualization observer readout
Local Sidereal Time
00:11:26
Azimuth
Unknown
Elevation
Unknown
Doppler factor
Unknown
Orbital elements
Apogee altitude
981.429 km
Perigee altitude
833.459 km
Semi-major axis
7,285.581 km
Eccentricity
0.01016
Inclination
71.2818°
RAAN
348.5147°
Arg. of periapsis
288.5174°
True anomaly
71.59418°
Mean anomaly
70.4927°
Eccentric anomaly
71.04298°
Mean motion
3.49017 °/min
Orbital period
103.15 mins
BSTAR
0.00011226
Loading maneuver chart data...
Computing Atmospheric mass density...
Loading historical data...
Loading historical data...
Loading historical data...
Loading historical data...
Loading historical data...
Loading historical data...
Loading historical data...

Documentation

Showing up to 5 results
|